FW4141 Weather Reports


time (UTC)temp
C
wind
direction
speed
KPH
gust
KPH
rain 1hr
cm
rain 24hr
cm
rain mn
cm
humidity
%
barometer
mb
20200606172526 19 225 4.8 6.4 0.00 0.03 0.00 55 1001.9
20200606171523 20 225 6.4 6.4 0.00 0.03 0.00 56 1002.0
20200606170519 20 180 3.2 3.2 0.00 0.03 0.00 59 1002.0
20200606165516 19 225 4.8 6.4 0.00 0.03 0.00 60 1002.0
20200606164513 18 315 1.6 3.2 0.00 0.03 0.00 62 1001.7
20200606163510 18 203 4.8 6.4 0.00 0.03 0.00 61 1002.0
20200606162505 17 180 3.2 4.8 0.00 0.03 0.00 68 1001.7
20200606161502 17 338 4.8 6.4 0.00 0.03 0.00 70 1001.3
20200606160459 16 225 3.2 4.8 0.00 0.03 0.00 70 1001.2
20200606155455 16 225 1.6 3.2 0.00 0.03 0.00 71 1001.5
20200606154452 16 225 6.4 8.0 0.00 0.03 0.00 69 1001.2
20200606153449 16 270 6.4 11.3 0.00 0.03 0.00 65 1001.6
20200606152445 16 225 6.4 9.7 0.00 0.03 0.00 63 1001.5
20200606151442 16 225 8.0 12.9 0.00 0.03 0.00 61 1001.2
20200606150438 17 90 11.3 16.1 0.00 0.03 0.00 61 1001.0
20200606145435 17 180 12.9 19.3 0.00 0.03 0.00 60 1001.2
20200606144431 17 180 4.8 6.4 0.00 0.03 0.00 60 1001.2
20200606143428 17 180 11.3 19.3 0.00 0.03 0.00 55 1001.2
20200606142425 18 270 9.7 12.9 0.00 0.03 0.00 56 1001.1
20200606141421 17 225 4.8 9.7 0.00 0.03 0.00 57 1001.1
20200606140418 17 135 6.4 9.7 0.00 0.03 0.00 62 1001.3
20200606135414 16 203 3.2 4.8 0.00 0.03 0.00 63 1001.2
20200606134411 16 225 6.4 9.7 0.00 0.03 0.00 62 1001.2
20200606133407 16 225 6.4 12.9 0.00 0.03 0.00 62 1001.4
20200606132404 15 225 3.2 6.4 0.00 0.03 0.00 62 1001.2
20200606131400 16 270 8.0 12.9 0.00 0.03 0.00 61 1001.1
20200606130351 16 225 6.4 9.7 0.00 0.03 0.00 58 1001.3
20200606125348 16 225 6.4 8.0 0.00 0.03 0.00 56 1001.2
20200606124342 16 225 6.4 8.0 0.00 0.03 0.00 54 1001.1
20200606123340 17 203 12.9 19.3 0.00 0.03 0.00 53 1001.3
20200606122336 16 225 8.0 16.1 0.00 0.03 0.00 54 1001.4
20200606121333 16 225 9.7 17.7 0.00 0.03 0.00 54 1001.2
20200606120329 16 90 9.7 16.1 0.00 0.03 0.00 54 1001.1
20200606115326 17 135 11.3 12.9 0.00 0.03 0.00 53 1000.9
20200606114323 17 180 12.9 17.7 0.00 0.03 0.00 52 1001.1
20200606113319 17 180 9.7 12.9 0.00 0.03 0.00 52 1000.9
20200606112316 17 225 8.0 12.9 0.00 0.03 0.00 51 1000.9
20200606111313 17 180 9.7 16.1 0.00 0.03 0.00 51 1000.6
20200606110309 17 225 12.9 19.3 0.00 0.03 0.00 48 1000.5
20200606105307 18 0 6.4 9.7 0.00 0.03 0.00 46 1000.5
20200606104302 18 180 6.4 8.0 0.00 0.03 0.00 50 1000.2
20200606103259 18 225 16.1 24.1 0.00 0.03 0.00 46 1000.5
20200606101904 -17 0.0 0.0 0.00 0.03 0.00 1000.3
20200606100900 -17 0.0 0.0 0.00 0.03 0.00 1000.4
20200606095856 -17 0.0 0.0 0.00 0.03 0.00 1000.2
20200606094853 -17 0.0 0.0 0.00 0.03 0.00 1000.3
20200606093850 -17 0.0 0.0 0.00 0.03 0.00 999.9
20200606092847 -17 0.0 0.0 0.00 0.03 0.00 1000.2
20200606090839 -17 0.0 0.0 0.00 0.03 0.00 1000.4
20200606085836 -17 0.0 0.0 0.00 0.03 0.00 1000.3
20200606084832 -17 0.0 0.0 0.00 0.03 0.00 1000.2
20200606083828 -17 0.0 0.0 0.00 0.03 0.00 999.8
20200606082825 -17 0.0 0.0 0.00 0.03 0.00 999.7
20200606081822 -17 0.0 0.0 0.00 0.03 0.00 999.7
20200606080818 -17 0.0 0.0 0.00 0.03 0.00 999.7
20200606075815 -17 0.0 0.0 0.00 0.03 0.00 999.8
20200606074812 -17 0.0 0.0 0.00 0.03 0.00 999.4
20200606073809 -17 0.0 0.0 0.00 0.03 0.00 999.5
20200606072806 -17 0.0 0.0 0.00 0.03 0.00 999.6
20200606071802 -17 0.0 0.0 0.00 0.03 0.00 999.4
20200606070758 -17 0.0 0.0 0.00 0.03 0.00 999.5
20200606065754 -17 0.0 0.0 0.00 0.03 0.00 999.2
20200606064751 -17 0.0 0.0 0.00 0.03 0.00 999.1
20200606063747 -17 0.0 0.0 0.00 0.03 0.00 999.1
20200606062744 -17 0.0 0.0 0.00 0.03 0.00 999.0
20200606061741 -17 0.0 0.0 0.00 0.03 0.00 999.1
20200606060737 -17 0.0 0.0 0.00 0.03 0.00 999.1
20200606055734 -17 0.0 0.0 0.00 0.03 0.00 998.8
20200606054730 -17 0.0 0.0 0.00 0.03 0.00 998.7
20200606053727 -17 0.0 0.0 0.00 0.03 0.00 998.6
20200606052723 -17 0.0 0.0 0.00 0.03 0.00 998.6
20200606051720 -17 0.0 0.0 0.00 0.03 0.00 998.3
20200606050717 -17 0.0 0.0 0.00 0.03 0.00 998.5
20200606045714 -17 0.0 0.0 0.00 0.03 0.00 998.3
20200606044710 -17 0.0 0.0 0.00 0.03 0.00 998.2
20200606043706 -17 0.0 0.0 0.00 0.03 0.00 997.9
20200606042702 -17 0.0 0.0 0.00 0.03 0.00 997.6
20200606041659 -17 0.0 0.0 0.00 0.03 0.00 997.7
20200606040650 -17 0.0 0.0 0.00 0.03 0.00 997.5
20200606035647 -17 0.0 0.0 0.00 0.03 0.00 997.5
20200606034641 -17 0.0 0.0 0.00 0.03 0.00 997.4
20200606033639 -17 0.0 0.0 0.00 0.03 0.00 997.3
20200606032636 -17 0.0 0.0 0.00 0.03 0.00 997.2
20200606031632 -17 0.0 0.0 0.00 0.03 0.00 996.9
20200606030629 -17 0.0 0.0 0.00 0.03 0.00 996.6
20200606025625 -17 0.0 0.0 0.00 0.03 0.00 996.6
20200606024622 -17 0.0 0.0 0.00 0.03 0.00 996.4
20200606023618 -17 0.0 0.0 0.00 0.03 0.00 996.3
20200606022615 -17 0.0 0.0 0.00 0.03 0.00 996.3
20200606021612 -17 0.0 0.0 0.00 0.03 0.00 996.2
20200606020608 -17 0.0 0.0 0.00 0.03 0.00 995.7
20200606015605 -17 0.0 0.0 0.00 0.03 0.00 995.9
20200606014601 -17 0.0 0.0 0.00 0.03 0.00 995.7
20200606013558 -17 0.0 0.0 0.00 0.03 0.00 995.3
20200606012554 -17 0.0 0.0 0.00 0.03 0.00 995.5
20200606011551 -17 0.0 0.0 0.00 0.03 0.00 995.3
20200606010548 -17 0.0 0.0 0.00 0.03 0.00 995.3
20200606005544 -17 0.0 0.0 0.00 0.03 0.00 995.1
20200606004540 -17 0.0 0.0 0.00 0.03 0.00 994.9
20200606003537 -17 0.0 0.0 0.00 0.03 0.00 994.5
20200606002534 -17 0.0 0.0 0.00 0.03 0.00 994.6
20200606001530 -17 0.0 0.0 0.00 0.03 0.00 994.7
20200606000528 -17 0.0 0.0 0.00 0.03 0.00 994.8
20200605235524 -17 0.0 0.0 0.00 0.03 0.00 994.8
20200605234521 -17 0.0 0.0 0.00 0.03 0.00 994.7
20200605233515 -17 0.0 0.0 0.00 0.03 0.00 994.6
20200605232512 -17 0.0 0.0 0.00 0.03 0.00 994.5
20200605231510 -17 0.0 0.0 0.00 0.03 0.00 994.3
20200605230506 -17 0.0 0.0 0.00 0.03 0.00 994.3
20200605225503 -17 0.0 0.0 0.00 0.03 0.00 994.3
20200605225003 -17 0.0 0.0 0.00 0.03 0.00 994.3
20200605223959 -17 0.0 0.0 0.00 0.03 0.00 994.3
20200605222958 -17 0.0 0.0 0.00 0.03 0.00 994.4
20200605221951 -17 0.0 0.0 0.00 0.03 0.00 994.1
20200605220948 -17 0.0 0.0 0.00 0.03 0.00 994.2
20200605215945 -17 0.0 0.0 0.00 0.03 0.03 994.1
20200605214939 -17 0.0 0.0 0.00 0.03 0.03 993.9
20200605213936 -17 0.0 0.0 0.00 0.03 0.03 994.0
20200605212934 -17 0.0 0.0 0.00 0.03 0.03 994.0
20200605211924 -17 0.0 0.0 0.00 0.03 0.03 993.8
20200605210920 -17 0.0 0.0 0.00 0.03 0.03 993.9
20200605205917 -17 0.0 0.0 0.00 0.03 0.03 994.2
20200605204913 -17 0.0 0.0 0.00 0.03 0.03 993.7
20200605203911 -17 0.0 0.0 0.00 0.03 0.03 993.7
20200605202907 -17 0.0 0.0 0.00 0.03 0.03 993.8
20200605201904 -17 0.0 0.0 0.00 0.03 0.03 993.6
20200605200900 -17 0.0 0.0 0.00 0.03 0.03 993.6
20200605195857 -17 0.0 0.0 0.00 0.03 0.03 993.8
20200605194853 -17 0.0 0.0 0.00 0.03 0.03 993.8
20200605193849 -17 0.0 0.0 0.03 0.03 0.03 993.9
20200605192846 -17 0.0 0.0 0.03 0.03 0.03 993.8
20200605191843 -17 0.0 0.0 0.03 0.03 0.03 993.9
20200605190839 -17 0.0 0.0 0.03 0.03 0.03 993.8
20200605185836 -17 0.0 0.0 0.03 0.03 0.03 993.8
20200605184846 15 315 4.8 6.4 0.03 0.03 0.03 76 993.3
20200605183829 15 225 9.7 12.9 0.00 0.00 0.00 75 992.8
20200605182826 16 135 6.4 9.7 0.00 0.00 0.00 74 992.7
20200605181822 16 158 6.4 8.0 0.00 0.00 0.00 74 992.9
20200605180818 16 180 6.4 11.3 0.00 0.00 0.00 73 992.7
20200605175815 16 225 8.0 11.3 0.00 0.00 0.00 72 992.7
20200605174812 16 135 6.4 8.0 0.00 0.00 0.00 70 992.9
20200605173808 16 135 6.4 8.0 0.00 0.00 0.00 70 992.9